M I D A S
Marine Information and Data Acquisition System
Tripno 183 of the Zeeleeuw from 2001-12-04 09:15:00 to 2001-12-04 16:20:00
Back to CruiseResearch ActivitiesStationsMapUnderway DataData graphs

EquipmentUnitsComment
TimeDGPSUTC
LatitudeDGPSDM.mWGS84
LongitudeDGPSDM.mWGS84
TemperatureSBE03/SBE38deg celciusITS90
ConductivitySBE21S/mITS90
SalinitySBE21 Practical Salinity Units
ChlorophylAChelsea fluorimeterg/lCalibrated in Aceton
Missing or incorrect values are displayed as -999
Sea surface data collected by the RV Zeeleeuw from 2001-12-04 09:15:00 to 2001-12-04 16:20:00
                                                                                    Next 1000 lines
Time Latitude Longitude Temperature Conductivity Salinity ChlorophylA
2001-12-04 09:15:06 51°13.427 2°50.826 17.806159 0.002641 0.019885  
2001-12-04 09:15:12 51°13.427 2°50.826 17.775837 0.002641 0.019885  
2001-12-04 09:15:17 51°13.426 2°50.825 17.881156 0.002641 0.019885  
2001-12-04 09:15:22 51°13.426 2°50.825 17.917477 0.002641 0.019885  
2001-12-04 09:15:26 51°13.426 2°50.824 17.819186 0.002641 0.019885  
2001-12-04 09:15:32 51°13.426 2°50.824 17.819186 0.002641 0.019885  
2001-12-04 09:15:36 51°13.426 2°50.823 17.925273 0.002641 0.019885  
2001-12-04 09:15:42 51°13.426 2°50.823 17.861674 0.002641 0.019885  
2001-12-04 09:15:47 51°13.426 2°50.822 17.726692 0.002641 0.019884  
2001-12-04 09:15:51 51°13.426 2°50.822 17.725647 0.002641 0.019884  
2001-12-04 09:15:57 51°13.426 2°50.822 17.828245 0.002641 0.019884  
2001-12-04 09:16:01 51°13.426 2°50.822 17.828245 0.002641 0.019884  
2001-12-04 09:16:07 51°13.426 2°50.821 17.865053 0.002641 0.019884  
2001-12-04 09:16:12 51°13.426 2°50.821 17.761298 0.002641 0.019884  
2001-12-04 09:16:17 51°13.426 2°50.82 17.772704 0.002641 0.019884  
2001-12-04 09:16:22 51°13.426 2°50.82 17.811629 0.002641 0.019884  
2001-12-04 09:16:27 51°13.427 2°50.818 17.920687 0.002641 0.019884  
2001-12-04 09:16:32 51°13.428 2°50.816 17.920687 0.002641 0.019884  
2001-12-04 09:16:37 51°13.429 2°50.813 18.060285 0.002641 0.019884  
2001-12-04 09:16:41 51°13.43 2°50.811 17.926565 0.002641 0.019883  
2001-12-04 09:16:46 51°13.432 2°50.807 17.825615 0.002641 0.019883  
2001-12-04 09:16:52 51°13.433 2°50.801 17.863843 0.002641 0.019883  
2001-12-04 09:16:56 51°13.434 2°50.797 17.969195 0.002641 0.019883  
2001-12-04 09:17:02 51°13.436 2°50.79 17.969195 0.002641 0.019883  
2001-12-04 09:17:06 51°13.437 2°50.786 17.90376 0.002641 0.019883  
2001-12-04 09:17:11 51°13.437 2°50.779 18.044182 0.002641 0.019883  
2001-12-04 09:17:17 51°13.438 2°50.771 18.114973 0.002641 0.019882  
2001-12-04 09:17:22 51°13.438 2°50.764 18.114515 0.002641 0.019882  
2001-12-04 09:17:26 51°13.438 2°50.759 17.880947 0.002641 0.019882  
2001-12-04 09:17:32 51°13.437 2°50.749 17.880947 0.002641 0.019882  
2001-12-04 09:17:37 51°13.435 2°50.74 17.988022 0.002641 0.019882  
2001-12-04 09:17:41 51°13.433 2°50.732 17.956905 0.002641 0.019882  
2001-12-04 09:17:47 51°13.429 2°50.721 17.958613 0.002641 0.019882  
2001-12-04 09:17:52 51°13.425 2°50.711 18.061533 0.002641 0.019881  
2001-12-04 09:17:56 51°13.421 2°50.702 18.046721 0.002641 0.019881  
2001-12-04 09:18:01 51°13.415 2°50.691 18.046721 0.002641 0.019881  
2001-12-04 09:18:07 51°13.408 2°50.676 17.934943 0.002641 0.019881  
2001-12-04 09:18:11 51°13.402 2°50.666 18.015879 0.002641 0.019881  
2001-12-04 09:18:17 51°13.394 2°50.651 18.065735 0.002641 0.019882  
2001-12-04 09:18:21 51°13.387 2°50.641 18.226917 0.002641 0.019881  
2001-12-04 09:18:27 51°13.377 2°50.624 18.129895 0.002641 0.019881  
2001-12-04 09:18:31 51°13.37 2°50.612 18.129895 0.002641 0.019881  
2001-12-04 09:18:37 51°13.358 2°50.595 18.01667 0.002641 0.019881  
2001-12-04 09:18:41 51°13.349 2°50.582 18.007303 0.002641 0.019881  
2001-12-04 09:18:47 51°13.335 2°50.562 18.064154 0.002641 0.019881  
2001-12-04 09:18:51 51°13.327 2°50.547 17.884159 0.002641 0.019882  
2001-12-04 09:18:57 51°13.314 2°50.523 17.954446 0.002641 0.019882  
2001-12-04 09:19:02 51°13.304 2°50.501 17.954446 0.002641 0.019882  
2001-12-04 09:19:07 51°13.295 2°50.477 17.988939 0.002641 0.019882  
2001-12-04 09:19:12 51°13.286 2°50.452 17.992479 0.002641 0.019881  
2001-12-04 09:19:17 51°13.277 2°50.427 18.138373 0.002641 0.01988  
2001-12-04 09:19:22 51°13.267 2°50.402 18.003389 0.002641 0.01988  
2001-12-04 09:19:26 51°13.26 2°50.382 18.034735 0.002641 0.01988  
2001-12-04 09:19:32 51°13.248 2°50.351 18.034735 0.002641 0.01988  
2001-12-04 09:19:36 51°13.241 2°50.33 18.091564 0.002641 0.01988  
2001-12-04 09:19:41 51°13.231 2°50.304 18.117425 0.002641 0.019879  
2001-12-04 09:19:47 51°13.22 2°50.272 18.152834 0.002641 0.019879  
2001-12-04 09:19:52 51°13.21 2°50.246 18.262228 0.002641 0.019879  
2001-12-04 09:19:57 51°13.2 2°50.22 17.959321 0.002641 0.019878  
2001-12-04 09:20:01 51°13.192 2°50.199 17.959321 0.002641 0.019878  
2001-12-04 09:20:07 51°13.18 2°50.167 18.12923 0.002641 0.019878  
2001-12-04 09:20:12 51°13.169 2°50.141 18.228784 0.002641 0.019878  
2001-12-04 09:20:17 51°13.159 2°50.115 18.066276 0.002641 0.019878  
2001-12-04 09:20:21 51°13.151 2°50.094 18.233599 0.002641 0.019877  
2001-12-04 09:20:27 51°13.138 2°50.063 18.142695 0.002641 0.019877  
2001-12-04 09:20:32 51°13.127 2°50.037 18.142695 0.002641 0.019877  
2001-12-04 09:20:37 51°13.116 2°50.011 18.316923 0.002641 0.019877  
2001-12-04 09:20:41 51°13.108 2°49.99 18.114349 0.002641 0.019876  
2001-12-04 09:20:47 51°13.095 2°49.959 17.976277 0.002641 0.019876  
2001-12-04 09:20:52 51°13.084 2°49.932 18.044848 0.002641 0.019876  
2001-12-04 09:20:57 51°13.074 2°49.906 17.953613 0.002641 0.019875  
2001-12-04 09:21:02 51°13.063 2°49.88 17.953613 0.002641 0.019875  
2001-12-04 09:21:07 51°13.053 2°49.853 17.947154 0.002641 0.019875  
2001-12-04 09:21:12 51°13.042 2°49.827 18.135714 0.002641 0.019875  
2001-12-04 09:21:17 51°13.031 2°49.8 17.924356 0.002641 0.019874  
2001-12-04 09:21:21 51°13.023 2°49.779 17.987231 0.002641 0.019874  
2001-12-04 09:21:27 51°13.011 2°49.747 18.012257 0.002641 0.019874  
2001-12-04 09:21:31 51°13.002 2°49.726 18.012257 0.002641 0.019874  
2001-12-04 09:21:36 51°12.992 2°49.699 17.869601 0.002641 0.019874  
2001-12-04 09:21:41 51°12.981 2°49.672 18.142404 0.002641 0.019874  
2001-12-04 09:21:47 51°12.969 2°49.641 17.905136 0.002641 0.019873  
2001-12-04 09:21:51 51°12.96 2°49.619 18.349661 0.002641 0.019873  
2001-12-04 09:21:56 51°12.95 2°49.593 18.289187 0.002641 0.019873  
2001-12-04 09:22:02 51°12.937 2°49.561 18.289187 0.002641 0.019873  
2001-12-04 09:22:07 51°12.927 2°49.534 18.019875 0.002641 0.019873  
2001-12-04 09:22:11 51°12.918 2°49.513 18.19055 0.002641 0.019872  
2001-12-04 09:22:17 51°12.905 2°49.481 18.202716 0.002641 0.019872  
2001-12-04 09:22:22 51°12.895 2°49.454 17.954613 0.002641 0.019872  
2001-12-04 09:22:26 51°12.886 2°49.433 18.137293 0.002641 0.019872  
2001-12-04 09:22:32 51°12.873 2°49.401 18.137293 0.002641 0.019872  
2001-12-04 09:22:36 51°12.865 2°49.38 18.096221 0.002641 0.019871  
2001-12-04 09:22:41 51°12.854 2°49.353 18.04335 0.002641 0.019871  
2001-12-04 09:22:46 51°12.843 2°49.327 18.210894 0.002641 0.019871  
2001-12-04 09:22:52 51°12.831 2°49.295 18.177177 0.002641 0.019871  
2001-12-04 09:22:56 51°12.822 2°49.274 18.189428 0.002641 0.01987  
2001-12-04 09:23:02 51°12.81 2°49.242 18.189428 0.002641 0.01987  
2001-12-04 09:23:07 51°12.799 2°49.215 18.316177 0.002641 0.01987  
2001-12-04 09:23:11 51°12.79 2°49.194 18.220193 0.002641 0.01987  
2001-12-04 09:23:16 51°12.78 2°49.168 18.1407 0.002641 0.01987  
2001-12-04 09:23:22 51°12.767 2°49.136 18.223389 0.002641 0.019869  
2001-12-04 09:23:26 51°12.759 2°49.114 18.195989 0.002641 0.019869  
2001-12-04 09:23:31 51°12.748 2°49.087 18.195989 0.002641 0.019869  
2001-12-04 09:23:37 51°12.735 2°49.055 18.17103 0.002641 0.019869  
2001-12-04 09:23:42 51°12.724 2°49.028 18.145729 0.002641 0.019868  
2001-12-04 09:23:46 51°12.716 2°49.007 18.364202 0.002641 0.019868  
2001-12-04 09:23:51 51°12.705 2°48.98 18.185608 0.002641 0.019868  
2001-12-04 09:23:57 51°12.692 2°48.948 18.22094 0.002641 0.019867  
2001-12-04 09:24:02 51°12.681 2°48.921 18.22094 0.002641 0.019867  
2001-12-04 09:24:07 51°12.671 2°48.894 17.973403 0.002641 0.019867  
2001-12-04 09:24:12 51°12.66 2°48.867 18.097469 0.002641 0.019867  
2001-12-04 09:24:16 51°12.652 2°48.846 18.197609 0.002641 0.019866  
2001-12-04 09:24:22 51°12.639 2°48.814 18.189345 0.002641 0.019866  
2001-12-04 09:24:27 51°12.628 2°48.787 18.320695 0.002641 0.019866  
2001-12-04 09:24:32 51°12.617 2°48.76 18.320695 0.002641 0.019866  
2001-12-04 09:24:37 51°12.606 2°48.733 18.298309 0.002641 0.019865  
2001-12-04 09:24:42 51°12.596 2°48.706 18.243102 0.002641 0.019865  
2001-12-04 09:24:47 51°12.585 2°48.679 18.245882 0.002641 0.019865  
2001-12-04 09:24:51 51°12.576 2°48.657 18.142654 0.002641 0.019864  
2001-12-04 09:24:57 51°12.564 2°48.625 18.081333 0.002641 0.019864  
2001-12-04 09:25:02 51°12.553 2°48.598 18.081333 0.002641 0.019864  
2001-12-04 09:25:07 51°12.543 2°48.57 18.288067 0.002641 0.019863  
2001-12-04 09:25:12 51°12.532 2°48.544 18.326207 0.002641 0.019863  
2001-12-04 09:25:16 51°12.524 2°48.522 18.252064 0.002641 0.019863  
2001-12-04 09:25:21 51°12.513 2°48.495 18.106616 0.002641 0.019862  
2001-12-04 09:25:26 51°12.502 2°48.468 18.230486 0.002641 0.019862  
2001-12-04 09:25:31 51°12.491 2°48.44 18.230486 0.002641 0.019862  
2001-12-04 09:25:37 51°12.479 2°48.408 18.400478 0.002641 0.019861  
2001-12-04 09:25:41 51°12.47 2°48.387 18.201221 0.002641 0.019861  
2001-12-04 09:25:47 51°12.457 2°48.354 18.242064 0.002641 0.019861  
2001-12-04 09:25:52 51°12.447 2°48.327 18.216083 0.002641 0.01986  
2001-12-04 09:25:57 51°12.435 2°48.301 18.317586 0.002641 0.01986  
2001-12-04 09:26:01 51°12.427 2°48.279 18.317586 0.002641 0.01986  
2001-12-04 09:26:06 51°12.416 2°48.253 18.107157 0.002641 0.01986  
2001-12-04 09:26:12 51°12.403 2°48.22 18.38052 0.002641 0.01986  
2001-12-04 09:26:17 51°12.393 2°48.193 18.384289 0.002641 0.019859  
2001-12-04 09:26:22 51°12.382 2°48.167 18.257457 0.002641 0.019859  
2001-12-04 09:26:27 51°12.371 2°48.14 18.425107 0.002641 0.019859  
2001-12-04 09:26:32 51°12.361 2°48.112 18.425107 0.002641 0.019859  
2001-12-04 09:26:37 51°12.35 2°48.085 18.428335 0.002641 0.019858  
2001-12-04 09:26:42 51°12.339 2°48.058 18.300755 0.002641 0.019858  
2001-12-04 09:26:47 51°12.329 2°48.031 18.260278 0.002641 0.019858  
2001-12-04 09:26:51 51°12.32 2°48.01 18.317918 0.002641 0.019857  
2001-12-04 09:26:57 51°12.307 2°47.977 18.109277 0.002641 0.019857  
2001-12-04 09:27:01 51°12.298 2°47.956 18.109277 0.002641 0.019857  
2001-12-04 09:27:06 51°12.288 2°47.929 18.309088 0.002641 0.019857  
2001-12-04 09:27:12 51°12.274 2°47.897 18.285496 0.002641 0.019857  
2001-12-04 09:27:16 51°12.266 2°47.875 18.131765 0.002641 0.019856  
2001-12-04 09:27:21 51°12.255 2°47.848 18.340918 0.002641 0.019856  
2001-12-04 09:27:27 51°12.242 2°47.816 18.264095 0.002641 0.019856  
2001-12-04 09:27:32 51°12.232 2°47.789 18.264095 0.002641 0.019856  
2001-12-04 09:27:36 51°12.223 2°47.768 18.426928 0.002641 0.019855  
2001-12-04 09:27:42 51°12.211 2°47.735 18.246546 0.002641 0.019855  
2001-12-04 09:27:46 51°12.202 2°47.713 18.273635 0.002641 0.019855  
2001-12-04 09:27:52 51°12.189 2°47.681 18.096596 0.002641 0.019854  
2001-12-04 09:27:57 51°12.179 2°47.654 18.121956 0.002641 0.019854  
2001-12-04 09:28:02 51°12.168 2°47.627 18.121956 0.002641 0.019854  
2001-12-04 09:28:07 51°12.157 2°47.6 18.262352 0.002641 0.019854  
2001-12-04 09:28:11 51°12.149 2°47.578 18.235964 0.002641 0.019854  
2001-12-04 09:28:17 51°12.136 2°47.546 18.311575 0.002641 0.019853  
2001-12-04 09:28:21 51°12.127 2°47.524 18.183573 0.002641 0.019853  
2001-12-04 09:28:27 51°12.115 2°47.492 18.419396 0.002641 0.019853  
2001-12-04 09:28:32 51°12.104 2°47.465 18.419396 0.002641 0.019853  
2001-12-04 09:28:37 51°12.093 2°47.438 18.250653 0.002641 0.019853  
2001-12-04 09:28:42 51°12.082 2°47.411 18.33031 0.002641 0.019852  
2001-12-04 09:28:47 51°12.072 2°47.384 18.173273 0.002641 0.019852  
2001-12-04 09:28:51 51°12.063 2°47.363 18.23003 0.002641 0.019852  
2001-12-04 09:28:56 51°12.052 2°47.336 18.265215 0.002641 0.019852  
2001-12-04 09:29:01 51°12.042 2°47.309 18.265215 0.002641 0.019852  
2001-12-04 09:29:07 51°12.03 2°47.276 18.179669 0.002641 0.019851  
2001-12-04 09:29:12 51°12.02 2°47.248 18.327948 0.002641 0.019851  
2001-12-04 09:29:16 51°12.012 2°47.226 18.217453 0.002641 0.019851  
2001-12-04 09:29:22 51°12 2°47.192 18.301128 0.002641 0.019851  
2001-12-04 09:29:27 51°11.99 2°47.165 17.926107 0.002641 0.019851  
2001-12-04 09:29:32 51°11.98 2°47.138 17.926107 0.002641 0.019851  
2001-12-04 09:29:36 51°11.972 2°47.115 17.9819 0.002641 0.01985  
2001-12-04 09:29:42 51°11.96 2°47.082 17.956155 0.002641 0.01985  
2001-12-04 09:29:46 51°11.952 2°47.06 17.948363 0.002641 0.01985  
2001-12-04 09:29:52 51°11.94 2°47.027 17.965529 0.002641 0.019849  
2001-12-04 09:29:56 51°11.932 2°47.005 17.960071 0.002641 0.019849  
2001-12-04 09:30:02 51°11.921 2°46.971 17.960071 0.002641 0.019849  
2001-12-04 09:30:06 51°11.912 2°46.95 17.967112 0.002641 0.019849  
2001-12-04 09:30:11 51°11.902 2°46.922 17.964404 0.002641 0.019849  
2001-12-04 09:30:17 51°11.89 2°46.889 18.000724 0.002641 0.019848  
2001-12-04 09:30:22 51°11.88 2°46.861 18.009842 0.002641 0.019848  
2001-12-04 09:30:27 51°11.871 2°46.833 17.978734 0.002641 0.019848  
2001-12-04 09:30:32 51°11.861 2°46.806 17.978734 0.002641 0.019848  
2001-12-04 09:30:36 51°11.853 2°46.784 17.982358 0.002641 0.019848  
2001-12-04 09:30:42 51°11.841 2°46.75 18.019001 0.002641 0.019848  
2001-12-04 09:30:47 51°11.831 2°46.722 18.014297 0.002641 0.019847  
2001-12-04 09:30:52 51°11.822 2°46.694 17.997434 0.002641 0.019847  
2001-12-04 09:30:57 51°11.812 2°46.667 18.015255 0.002641 0.019847  
2001-12-04 09:31:02 51°11.802 2°46.639 18.015255 0.002641 0.019847  
2001-12-04 09:31:07 51°11.792 2°46.611 18.034569 0.002641 0.019847  
2001-12-04 09:31:12 51°11.782 2°46.583 17.993645 0.002641 0.019847  
2001-12-04 09:31:16 51°11.774 2°46.562 18.040645 0.002641 0.019847  
2001-12-04 09:31:22 51°11.762 2°46.528 18.079711 0.002641 0.019846  
2001-12-04 09:31:27 51°11.753 2°46.5 18.013298 0.002641 0.019846  
2001-12-04 09:31:32 51°11.743 2°46.473 18.013298 0.002641 0.019846  
2001-12-04 09:31:37 51°11.733 2°46.445 18.017211 0.002641 0.019846  
2001-12-04 09:31:41 51°11.725 2°46.423 18.097718 0.002641 0.019846  
2001-12-04 09:31:47 51°11.714 2°46.389 18.050133 0.002641 0.019845  
2001-12-04 09:31:51 51°11.706 2°46.367 18.066276 0.002641 0.019845  
2001-12-04 09:31:57 51°11.694 2°46.334 18.037648 0.002641 0.019845  
2001-12-04 09:32:02 51°11.685 2°46.305 18.037648 0.002641 0.019845  
2001-12-04 09:32:07 51°11.675 2°46.278 18.045306 0.002641 0.019845  
2001-12-04 09:32:12 51°11.665 2°46.25 18.070768 0.002641 0.019844  
2001-12-04 09:32:17 51°11.656 2°46.222 18.140825 0.002641 0.019844  
2001-12-04 09:32:21 51°11.648 2°46.2 18.045098 0.002641 0.019844  
2001-12-04 09:32:27 51°11.637 2°46.167 18.115264 0.002641 0.019844  
2001-12-04 09:32:31 51°11.629 2°46.144 18.115264 0.002641 0.019844  
2001-12-04 09:32:37 51°11.618 2°46.111 18.086532 0.002641 0.019844  
2001-12-04 09:32:42 51°11.608 2°46.083 18.095016 0.002641 0.019843  
2001-12-04 09:32:47 51°11.598 2°46.055 18.074221 0.002641 0.019843  
2001-12-04 09:32:52 51°11.589 2°46.027 18.097261 0.002641 0.019843  
2001-12-04 09:32:56 51°11.581 2°46.005 18.081208 0.002641 0.019843  
2001-12-04 09:33:02 51°11.57 2°45.972 18.081208 0.002641 0.019843  
2001-12-04 09:33:07 51°11.56 2°45.944 18.071517 0.002641 0.019842  
2001-12-04 09:33:12 51°11.55 2°45.917 18.096346 0.002641 0.019842  
2001-12-04 09:33:16 51°11.543 2°45.895 18.130186 0.002641 0.019842  
2001-12-04 09:33:21 51°11.534 2°45.867 18.085783 0.002641 0.019842  
2001-12-04 09:33:27 51°11.522 2°45.834 18.053045 0.002641 0.019842  
2001-12-04 09:33:31 51°11.515 2°45.811 18.053045 0.002641 0.019842  
2001-12-04 09:33:37 51°11.503 2°45.778 18.077756 0.002641 0.019841  
2001-12-04 09:33:42 51°11.494 2°45.751 18.091772 0.002641 0.019841  
2001-12-04 09:33:47 51°11.485 2°45.723 18.087572 0.002641 0.019841  
2001-12-04 09:33:52 51°11.475 2°45.695 18.132347 0.002641 0.019841  
2001-12-04 09:33:57 51°11.466 2°45.667 18.137833 0.002641 0.019841  
2001-12-04 09:34:02 51°11.457 2°45.639 18.137833 0.002641 0.019841  
2001-12-04 09:34:06 51°11.449 2°45.617 18.138373 0.002641 0.019841  
2001-12-04 09:34:11 51°11.44 2°45.589 18.106242 0.002641 0.01984  
2001-12-04 09:34:16 51°11.431 2°45.561 18.108446 0.002641 0.01984  
2001-12-04 09:34:22 51°11.42 2°45.527 18.107323 0.002641 0.01984  
2001-12-04 09:34:26 51°11.414 2°45.504 18.147432 0.002641 0.01984  
2001-12-04 09:34:31 51°11.405 2°45.476 18.147432 0.002641 0.01984  
2001-12-04 09:34:37 51°11.395 2°45.442 18.190508 0.002641 0.019839  
2001-12-04 09:34:42 51°11.386 2°45.414 18.154662 0.002641 0.019839  
2001-12-04 09:34:46 51°11.379 2°45.391 18.115846 0.002641 0.019839  
2001-12-04 09:34:52 51°11.368 2°45.357 18.134675 0.002641 0.019839  
2001-12-04 09:34:56 51°11.361 2°45.335 18.136545 0.002641 0.019838  
2001-12-04 09:35:02 51°11.35 2°45.302 18.136545 0.002641 0.019838  
2001-12-04 09:35:07 51°11.342 2°45.273 18.111065 0.002641 0.019838  
2001-12-04 09:35:11 51°11.334 2°45.251 18.153083 0.002641 0.019838  
2001-12-04 09:35:17 51°11.324 2°45.217 18.133552 0.002641 0.019838  
2001-12-04 09:35:21 51°11.317 2°45.195 18.16887 0.002641 0.019837  
2001-12-04 09:35:27 51°11.306 2°45.161 18.138041 0.002641 0.019837  
2001-12-04 09:35:31 51°11.299 2°45.138 18.138041 0.002641 0.019837  
2001-12-04 09:35:37 51°11.288 2°45.105 18.151504 0.002641 0.019837  
2001-12-04 09:35:42 51°11.279 2°45.077 18.216249 0.002641 0.019837  
2001-12-04 09:35:46 51°11.272 2°45.054 18.185525 0.002641 0.019837  
2001-12-04 09:35:51 51°11.262 2°45.026 18.189802 0.002641 0.019837  
2001-12-04 09:35:56 51°11.254 2°44.998 18.232312 0.002641 0.019837  
2001-12-04 09:36:02 51°11.243 2°44.964 18.232312 0.002641 0.019837  
2001-12-04 09:36:07 51°11.234 2°44.937 18.196861 0.002542 0.019381  
2001-12-04 09:36:12 51°11.224 2°44.909 18.243475 0.002641 0.019836  
2001-12-04 09:36:16 51°11.217 2°44.886 18.209192 0.002641 0.019836  
2001-12-04 09:36:21 51°11.208 2°44.858 18.176139 0.002641 0.019836  
2001-12-04 09:36:27 51°11.197 2°44.825 18.178838 0.002641 0.019836  
2001-12-04 09:36:32 51°11.188 2°44.797 18.178838 0.002641 0.019836  
2001-12-04 09:36:36 51°11.181 2°44.774 18.221438 0.002641 0.019835  
2001-12-04 09:36:42 51°11.17 2°44.741 18.188473 0.002641 0.019835  
2001-12-04 09:36:47 51°11.161 2°44.713 18.229698 0.002641 0.019835  
2001-12-04 09:36:51 51°11.154 2°44.69 18.255258 0.002641 0.019835  
2001-12-04 09:36:56 51°11.145 2°44.662 18.195533 0.002641 0.019835  
2001-12-04 09:37:01 51°11.136 2°44.634 18.195533 0.002641 0.019835  
2001-12-04 09:37:06 51°11.127 2°44.606 18.231358 0.002641 0.019835  
2001-12-04 09:37:12 51°11.117 2°44.573 18.23613 0.002641 0.019834  
2001-12-04 09:37:16 51°11.109 2°44.55 18.20093 0.002641 0.019834  
2001-12-04 09:37:22 51°11.098 2°44.517 18.26957 0.002542 0.019377  
2001-12-04 09:37:27 51°11.09 2°44.488 18.250902 0.002641 0.019834  
2001-12-04 09:37:31 51°11.083 2°44.466 18.250902 0.002641 0.019834  
2001-12-04 09:37:37 51°11.072 2°44.433 18.302414 0.002641 0.019834  
2001-12-04 09:37:42 51°11.063 2°44.405 18.20994 0.002542 0.019377  
2001-12-04 09:37:47 51°11.054 2°44.377 18.210106 0.002641 0.019833  
2001-12-04 09:37:51 51°11.046 2°44.354 18.318332 0.002641 0.019833  
2001-12-04 09:37:57 51°11.036 2°44.321 18.260486 0.002641 0.019833  
2001-12-04 09:38:01 51°11.028 2°44.298 18.260486 0.002641 0.019833  
2001-12-04 09:38:06 51°11.02 2°44.271 18.228784 0.002641 0.019833  
2001-12-04 09:38:11 51°11.011 2°44.242 18.293997 0.002641 0.019832  
2001-12-04 09:38:17 51°11 2°44.209 18.268699 0.002641 0.019833  
2001-12-04 09:38:21 51°10.993 2°44.186 18.239367 0.002641 0.019832  
2001-12-04 09:38:26 51°10.984 2°44.158 18.268035 0.002641 0.019832  
2001-12-04 09:38:32 51°10.974 2°44.124 18.268035 0.002641 0.019832  
2001-12-04 09:38:37 51°10.966 2°44.096 18.263555 0.002542 0.019375  
2001-12-04 09:38:42 51°10.958 2°44.067 18.235383 0.002542 0.019375  
2001-12-04 09:38:47 51°10.95 2°44.038 18.262933 0.002641 0.019831  
2001-12-04 09:38:52 51°10.942 2°44.01 18.249699 0.002641 0.019831  
2001-12-04 09:38:57 51°10.934 2°43.98 18.230735 0.002641 0.019831  
2001-12-04 09:39:02 51°10.927 2°43.952 18.230735 0.002641 0.019831  
2001-12-04 09:39:07 51°10.919 2°43.923 18.253309 0.002542 0.019374  
2001-12-04 09:39:12 51°10.912 2°43.894 18.2592 0.002641 0.019831  
2001-12-04 09:39:16 51°10.905 2°43.871 18.26285 0.002641 0.019831  
2001-12-04 09:39:21 51°10.898 2°43.842 18.260029 0.002641 0.019831  
2001-12-04 09:39:26 51°10.89 2°43.813 18.257706 0.002641 0.019831  
2001-12-04 09:39:31 51°10.883 2°43.784 18.257706 0.002641 0.019831  
2001-12-04 09:39:37 51°10.873 2°43.749 18.340877 0.002641 0.01983  
2001-12-04 09:39:42 51°10.866 2°43.72 18.258743 0.002641 0.01983  
2001-12-04 09:39:46 51°10.86 2°43.697 18.313524 0.002641 0.01983  
2001-12-04 09:39:51 51°10.852 2°43.669 18.322477 0.002641 0.01983  
2001-12-04 09:39:56 51°10.844 2°43.64 18.293872 0.002641 0.01983  
2001-12-04 09:40:02 51°10.835 2°43.605 18.293872 0.002641 0.01983  
2001-12-04 09:40:07 51°10.827 2°43.577 18.325544 0.002641 0.01983  
2001-12-04 09:40:12 51°10.819 2°43.548 18.288067 0.002542 0.019372  
2001-12-04 09:40:17 51°10.811 2°43.519 18.335407 0.002542 0.019372  
2001-12-04 09:40:21 51°10.805 2°43.496 18.31543 0.002641 0.019829  
2001-12-04 09:40:27 51°10.796 2°43.462 18.284833 0.002542 0.019371  
2001-12-04 09:40:31 51°10.79 2°43.439 18.284833 0.002542 0.019371  
2001-12-04 09:40:37 51°10.78 2°43.404 18.32629 0.002542 0.019371  
2001-12-04 09:40:41 51°10.774 2°43.382 18.348542 0.002641 0.019829  
2001-12-04 09:40:46 51°10.766 2°43.353 18.371243 0.002542 0.019371  
2001-12-04 09:40:51 51°10.758 2°43.324 18.319161 0.002542 0.019371  
2001-12-04 09:40:56 51°10.75 2°43.295 18.299926 0.002542 0.019371  
2001-12-04 09:41:01 51°10.743 2°43.266 18.299926 0.002542 0.019371  
2001-12-04 09:41:07 51°10.733 2°43.232 18.378988 0.002641 0.019829  
2001-12-04 09:41:12 51°10.726 2°43.203 18.31941 0.002641 0.019829  
2001-12-04 09:41:16 51°10.72 2°43.18 18.302206 0.002542 0.019371  
2001-12-04 09:41:22 51°10.711 2°43.145 18.330807 0.002641 0.019829  
2001-12-04 09:41:27 51°10.704 2°43.116 18.367805 0.002542 0.019371  
2001-12-04 09:41:31 51°10.699 2°43.093 18.367805 0.002542 0.019371  
2001-12-04 09:41:36 51°10.692 2°43.064 18.341333 0.002542 0.019371  
2001-12-04 09:41:42 51°10.683 2°43.029 18.343653 0.002542 0.019371  
2001-12-04 09:41:47 51°10.676 2°43 18.379319 0.002641 0.019829  
2001-12-04 09:41:52 51°10.669 2°42.971 18.32542 0.002542 0.019371  
2001-12-04 09:41:57 51°10.662 2°42.942 18.339841 0.002641 0.019828  
2001-12-04 09:42:02 51°10.655 2°42.913 18.339841 0.002641 0.019828  
2001-12-04 09:42:07 51°10.647 2°42.884 18.396752 0.002641 0.019828  
2001-12-04 09:42:11 51°10.642 2°42.861 18.366521 0.002542 0.01937  
2001-12-04 09:42:16 51°10.635 2°42.832 18.356662 0.002542 0.01937  
2001-12-04 09:42:22 51°10.626 2°42.797 18.369545 0.002542 0.01937  
2001-12-04 09:42:27 51°10.619 2°42.768 18.394723 0.002641 0.019828  
2001-12-04 09:42:31 51°10.613 2°42.745 18.394723 0.002641 0.019828  
2001-12-04 09:42:37 51°10.604 2°42.71 18.345311 0.002542 0.01937  
2001-12-04 09:42:41 51°10.599 2°42.687 18.393481 0.002542 0.019369  
2001-12-04 09:42:46 51°10.591 2°42.658 18.373148 0.002542 0.019369  
2001-12-04 09:42:52 51°10.583 2°42.623 18.353721 0.002542 0.019369  
2001-12-04 09:42:56 51°10.577 2°42.6 18.44708 0.002542 0.019369  
2001-12-04 09:43:02 51°10.569 2°42.565 18.44708 0.002542 0.019369  
2001-12-04 09:43:07 51°10.562 2°42.536 18.369214 0.002542 0.019369  
2001-12-04 09:43:12 51°10.556 2°42.507 18.378118 0.002542 0.019369  
2001-12-04 09:43:16 51°10.551 2°42.483 18.37555 0.002542 0.019369  
2001-12-04 09:43:21 51°10.544 2°42.454 18.409089 0.002542 0.019369  
2001-12-04 09:43:27 51°10.536 2°42.418 18.386856 0.002542 0.019368  
2001-12-04 09:43:32 51°10.53 2°42.389 18.386856 0.002542 0.019368  
2001-12-04 09:43:37 51°10.524 2°42.36 18.42879 0.002542 0.019368  
2001-12-04 09:43:42 51°10.517 2°42.33 18.393978 0.002542 0.019368  
2001-12-04 09:43:47 51°10.511 2°42.301 18.436529 0.002542 0.019368  
2001-12-04 09:43:51 51°10.506 2°42.277 18.40557 0.002542 0.019367  
2001-12-04 09:43:56 51°10.499 2°42.248 18.434584 0.002542 0.019367  
2001-12-04 09:44:02 51°10.491 2°42.212 18.434584 0.002542 0.019367  
2001-12-04 09:44:07 51°10.485 2°42.183 18.406315 0.002542 0.019367  
2001-12-04 09:44:12 51°10.479 2°42.153 18.413228 0.002542 0.019367  
2001-12-04 09:44:17 51°10.473 2°42.124 18.478557 0.002641 0.019825  
2001-12-04 09:44:22 51°10.466 2°42.095 18.454899 0.002542 0.019366  
2001-12-04 09:44:26 51°10.461 2°42.071 18.423907 0.002542 0.019366  
2001-12-04 09:44:32 51°10.453 2°42.036 18.423907 0.002542 0.019366  
2001-12-04 09:44:37 51°10.446 2°42.007 18.496296 0.002542 0.019366  
2001-12-04 09:44:41 51°10.442 2°41.983 18.418113 0.002542 0.019366  
2001-12-04 09:44:47 51°10.433 2°41.948 18.408716 0.002542 0.019365  
2001-12-04 09:44:52 51°10.427 2°41.919 18.468011 0.002542 0.019365  
2001-12-04 09:44:57 51°10.42 2°41.889 18.42279 0.002542 0.019365  
2001-12-04 09:45:02 51°10.414 2°41.86 18.42279 0.002542 0.019365  
2001-12-04 09:45:07 51°10.407 2°41.831 18.439467 0.002542 0.019365  
2001-12-04 09:45:12 51°10.4 2°41.802 18.443066 0.002542 0.019365  
2001-12-04 09:45:17 51°10.393 2°41.773 18.472768 0.002542 0.019364  
2001-12-04 09:45:22 51°10.387 2°41.743 18.45523 0.002542 0.019364  
2001-12-04 09:45:27 51°10.38 2°41.714 18.448197 0.002542 0.019364  
2001-12-04 09:45:32 51°10.374 2°41.685 18.448197 0.002542 0.019364  
2001-12-04 09:45:36 51°10.369 2°41.661 18.524445 0.002542 0.019364  
2001-12-04 09:45:41 51°10.362 2°41.632 18.489433 0.002542 0.019363  
2001-12-04 09:45:46 51°10.356 2°41.602 18.523247 0.002542 0.019363  
2001-12-04 09:45:52 51°10.348 2°41.567 18.505474 0.002542 0.019363  
2001-12-04 09:45:57 51°10.341 2°41.537 18.529198 0.002542 0.019363  
2001-12-04 09:46:02 51°10.335 2°41.508 18.529198 0.002542 0.019363  
2001-12-04 09:46:06 51°10.33 2°41.484 18.538289 0.002542 0.019363  
2001-12-04 09:46:11 51°10.323 2°41.455 18.47893 0.002542 0.019362  
2001-12-04 09:46:16 51°10.317 2°41.426 18.531677 0.002542 0.019362  
2001-12-04 09:46:22 51°10.309 2°41.39 18.484181 0.002542 0.019362  
2001-12-04 09:46:27 51°10.301 2°41.362 18.515725 0.002542 0.019362  
2001-12-04 09:46:32 51°10.293 2°41.333 18.515725 0.002542 0.019362  
2001-12-04 09:46:37 51°10.285 2°41.304 18.514816 0.002542 0.019361  
2001-12-04 09:46:42 51°10.277 2°41.276 18.479384 0.002542 0.019361  
2001-12-04 09:46:47 51°10.268 2°41.248 18.492947 0.002542 0.01936  
2001-12-04 09:46:52 51°10.26 2°41.219 18.50998 0.002542 0.01936  
2001-12-04 09:46:57 51°10.251 2°41.191 18.490342 0.002542 0.01936  
2001-12-04 09:47:02 51°10.243 2°41.163 18.490342 0.002542 0.01936  
2001-12-04 09:47:07 51°10.235 2°41.135 18.575383 0.002542 0.01936  
2001-12-04 09:47:12 51°10.226 2°41.107 18.508119 0.002542 0.019359  
2001-12-04 09:47:16 51°10.218 2°41.085 18.507003 0.002542 0.019358  
2001-12-04 09:47:21 51°10.21 2°41.058 18.558077 0.002542 0.019357  
2001-12-04 09:47:27 51°10.198 2°41.025 18.52242 0.002542 0.019357  
2001-12-04 09:47:32 51°10.189 2°40.998 18.52242 0.002542 0.019357  
2001-12-04 09:47:37 51°10.179 2°40.971 18.539569 0.002542 0.019357  
2001-12-04 09:47:41 51°10.172 2°40.95 18.585211 0.002542 0.019357  
2001-12-04 09:47:47 51°10.159 2°40.918 18.499976 0.002542 0.019357  
2001-12-04 09:47:51 51°10.152 2°40.896 18.557912 0.002542 0.019357  
2001-12-04 09:47:56 51°10.141 2°40.87 18.531967 0.002542 0.019356  
2001-12-04 09:48:01 51°10.131 2°40.844 18.531967 0.002542 0.019356  
2001-12-04 09:48:07 51°10.119 2°40.813 18.530396 0.002542 0.019356  
2001-12-04 09:48:11 51°10.111 2°40.792 18.570303 0.002542 0.019356  
2001-12-04 09:48:17 51°10.098 2°40.761 18.646872 0.002542 0.019356  
2001-12-04 09:48:22 51°10.088 2°40.736 18.536471 0.002542 0.019356  
2001-12-04 09:48:27 51°10.077 2°40.71 18.547378 0.002542 0.019356  
2001-12-04 09:48:32 51°10.066 2°40.685 18.547378 0.002542 0.019356  
2001-12-04 09:48:37 51°10.055 2°40.66 18.552666 0.002542 0.019356  
2001-12-04 09:48:42 51°10.044 2°40.636 18.537669 0.002542 0.019356  
2001-12-04 09:48:47 51°10.033 2°40.611 18.541016 0.002542 0.019355  
2001-12-04 09:48:51 51°10.024 2°40.591 18.510889 0.002542 0.019355  
2001-12-04 09:48:57 51°10.01 2°40.562 18.565058 0.002542 0.019355  
2001-12-04 09:49:02 51°9.999 2°40.537 18.565058 0.002542 0.019355  
2001-12-04 09:49:07 51°9.988 2°40.512 18.550931 0.002542 0.019354  
2001-12-04 09:49:12 51°9.978 2°40.486 18.550972 0.002542 0.019354  
2001-12-04 09:49:16 51°9.971 2°40.465 18.528289 0.002542 0.019354  
2001-12-04 09:49:22 51°9.959 2°40.433 18.570551 0.002542 0.019354  
2001-12-04 09:49:27 51°9.951 2°40.406 18.529115 0.002542 0.019353  
2001-12-04 09:49:32 51°9.943 2°40.379 18.529115 0.002542 0.019353  
2001-12-04 09:49:37 51°9.936 2°40.35 18.599125 0.002542 0.019352  
2001-12-04 09:49:42 51°9.93 2°40.322 18.551964 0.002542 0.019352  
2001-12-04 09:49:46 51°9.925 2°40.298 18.638745 0.002542 0.019351  
2001-12-04 09:49:51 51°9.92 2°40.269 18.606926 0.002542 0.019351  
2001-12-04 09:49:56 51°9.915 2°40.24 18.61254 0.002542 0.019351  
2001-12-04 09:50:02 51°9.91 2°40.204 18.61254 0.002542 0.019351  
2001-12-04 09:50:07 51°9.905 2°40.175 18.610518 0.002542 0.019351  
2001-12-04 09:50:12 51°9.902 2°40.145 18.607876 0.002542 0.019351  
2001-12-04 09:50:16 51°9.898 2°40.121 18.627521 0.002542 0.019351  
2001-12-04 09:50:22 51°9.892 2°40.086 18.594005 0.002542 0.01935  
2001-12-04 09:50:27 51°9.887 2°40.056 18.629419 0.002542 0.01935  
2001-12-04 09:50:32 51°9.882 2°40.027 18.629419 0.002542 0.01935  
2001-12-04 09:50:36 51°9.878 2°40.003 18.637094 0.002542 0.01935  
2001-12-04 09:50:41 51°9.873 2°39.974 18.604945 0.002542 0.01935  
2001-12-04 09:50:47 51°9.866 2°39.938 18.743835 0.002542 0.01935  
2001-12-04 09:50:51 51°9.861 2°39.915 18.671125 0.002542 0.01935  
2001-12-04 09:50:57 51°9.855 2°39.88 18.615058 0.002542 0.01935  
2001-12-04 09:51:02 51°9.849 2°39.85 18.615058 0.002542 0.01935  
2001-12-04 09:51:07 51°9.843 2°39.821 18.605028 0.002542 0.01935  
2001-12-04 09:51:12 51°9.837 2°39.791 18.682094 0.002542 0.019349  
2001-12-04 09:51:16 51°9.833 2°39.768 18.633051 0.002542 0.019349  
2001-12-04 09:51:22 51°9.826 2°39.732 18.626324 0.002542 0.019349  
2001-12-04 09:51:26 51°9.822 2°39.709 18.584385 0.002542 0.019349  
2001-12-04 09:51:32 51°9.815 2°39.673 18.584385 0.002542 0.019349  
2001-12-04 09:51:37 51°9.809 2°39.644 18.667661 0.002542 0.019349  
2001-12-04 09:51:41 51°9.804 2°39.62 18.628388 0.002542 0.019349  
2001-12-04 09:51:46 51°9.798 2°39.591 18.632514 0.002542 0.019348  
2001-12-04 09:51:52 51°9.791 2°39.555 18.669888 0.002542 0.019348  
2001-12-04 09:51:56 51°9.787 2°39.532 18.64679 0.002542 0.019348  
2001-12-04 09:52:01 51°9.781 2°39.502 18.64679 0.002542 0.019348  
2001-12-04 09:52:07 51°9.774 2°39.467 18.624137 0.002542 0.019348  
2001-12-04 09:52:12 51°9.768 2°39.437 18.679909 0.002542 0.019348  
2001-12-04 09:52:16 51°9.764 2°39.413 18.652359 0.002542 0.019348  
2001-12-04 09:52:22 51°9.758 2°39.378 18.645923 0.002542 0.019348  
2001-12-04 09:52:27 51°9.753 2°39.348 18.643489 0.002542 0.019347  
2001-12-04 09:52:32 51°9.748 2°39.318 18.643489 0.002542 0.019347  
2001-12-04 09:52:37 51°9.742 2°39.288 18.685104 0.002542 0.019347  
2001-12-04 09:52:41 51°9.738 2°39.264 18.688032 0.002542 0.019347  
2001-12-04 09:52:47 51°9.732 2°39.228 18.738314 0.002542 0.019347  
2001-12-04 09:52:51 51°9.728 2°39.204 18.676693 0.002542 0.019347  
2001-12-04 09:52:57 51°9.722 2°39.168 18.728755 0.002542 0.019347  
2001-12-04 09:53:02 51°9.717 2°39.138 18.728755 0.002542 0.019347  
2001-12-04 09:53:07 51°9.712 2°39.108 18.664238 0.002542 0.019347  
2001-12-04 09:53:11 51°9.708 2°39.084 18.653431 0.002542 0.019346  
2001-12-04 09:53:16 51°9.703 2°39.054 18.674053 0.002542 0.019346  
2001-12-04 09:53:22 51°9.697 2°39.018 18.71631 0.002542 0.019346  
2001-12-04 09:53:27 51°9.692 2°38.989 18.721873 0.002542 0.019345  
2001-12-04 09:53:31 51°9.687 2°38.964 18.721873 0.002542 0.019345  
2001-12-04 09:53:37 51°9.681 2°38.929 18.718741 0.002542 0.019345  
2001-12-04 09:53:42 51°9.676 2°38.899 18.679167 0.002542 0.019345  
2001-12-04 09:53:46 51°9.672 2°38.875 18.682713 0.002542 0.019345  
2001-12-04 09:53:52 51°9.665 2°38.839 18.697597 0.002542 0.019345  
2001-12-04 09:53:56 51°9.661 2°38.815 18.687455 0.002542 0.019345  
2001-12-04 09:54:02 51°9.655 2°38.778 18.687455 0.002542 0.019345  
2001-12-04 09:54:07 51°9.65 2°38.748 18.75714 0.002542 0.019344  
2001-12-04 09:54:12 51°9.645 2°38.718 18.696648 0.002542 0.019344  
2001-12-04 09:54:16 51°9.64 2°38.694 18.707284 0.002542 0.019344  
2001-12-04 09:54:22 51°9.634 2°38.658 18.705058 0.002542 0.019344  
2001-12-04 09:54:27 51°9.629 2°38.628 18.736584 0.002542 0.019344  
2001-12-04 09:54:31 51°9.625 2°38.604 18.736584 0.002542 0.019344  
2001-12-04 09:54:37 51°9.619 2°38.568 18.829431 0.002542 0.019343  
2001-12-04 09:54:42 51°9.614 2°38.538 18.772214 0.002542 0.019343  
2001-12-04 09:54:47 51°9.609 2°38.508 18.754751 0.002542 0.019343  
2001-12-04 09:54:52 51°9.603 2°38.478 18.754586 0.002542 0.019343  
2001-12-04 09:54:57 51°9.598 2°38.448 18.760559 0.002542 0.019342  
2001-12-04 09:55:02 51°9.593 2°38.418 18.760559 0.002542 0.019342  
2001-12-04 09:55:06 51°9.589 2°38.394 18.765913 0.002542 0.019342  
2001-12-04 09:55:12 51°9.582 2°38.358 18.729868 0.002542 0.019342  
2001-12-04 09:55:17 51°9.577 2°38.329 18.797576 0.002542 0.019342  
2001-12-04 09:55:21 51°9.573 2°38.304 18.789384 0.002542 0.019342  
2001-12-04 09:55:27 51°9.566 2°38.268 18.719854 0.002542 0.019341  
2001-12-04 09:55:32 51°9.561 2°38.238 18.719854 0.002542 0.019341  
2001-12-04 09:55:37 51°9.556 2°38.208 18.732876 0.002542 0.019341  
2001-12-04 09:55:41 51°9.552 2°38.184 18.74503 0.002542 0.019341  
2001-12-04 09:55:47 51°9.546 2°38.148 18.768384 0.002542 0.019341  
2001-12-04 09:55:52 51°9.541 2°38.118 18.769208 0.002542 0.019341  
2001-12-04 09:55:57 51°9.536 2°38.087 18.717464 0.002542 0.01934  
2001-12-04 09:56:01 51°9.531 2°38.063 18.717464 0.002542 0.01934  
2001-12-04 09:56:07 51°9.525 2°38.027 18.743134 0.002542 0.01934  
2001-12-04 09:56:11 51°9.521 2°38.003 18.778349 0.002542 0.01934  
2001-12-04 09:56:17 51°9.515 2°37.967 18.789754 0.002542 0.01934  
2001-12-04 09:56:22 51°9.51 2°37.936 18.764018 0.002542 0.01934  
2001-12-04 09:56:27 51°9.505 2°37.906 18.870688 0.002542 0.01934  
2001-12-04 09:56:32 51°9.5 2°37.876 18.870688 0.002542 0.01934  
2001-12-04 09:56:36 51°9.496 2°37.852 18.765954 0.002542 0.01934  
2001-12-04 09:56:41 51°9.491 2°37.821 18.837865 0.002542 0.019339  
2001-12-04 09:56:47 51°9.485 2°37.785 18.795724 0.002542 0.019339  
2001-12-04 09:56:52 51°9.48 2°37.755 18.847615 0.002542 0.019339  
2001-12-04 09:56:57 51°9.475 2°37.725 18.788725 0.002542 0.019339  
2001-12-04 09:57:02 51°9.47 2°37.695 18.788725 0.002542 0.019339  
2001-12-04 09:57:06 51°9.465 2°37.671 18.817456 0.002542 0.019339  
2001-12-04 09:57:11 51°9.46 2°37.641 18.782961 0.002542 0.019339  
2001-12-04 09:57:17 51°9.454 2°37.605 18.859831 0.002542 0.019338  
2001-12-04 09:57:21 51°9.45 2°37.581 18.776332 0.002542 0.019338  
2001-12-04 09:57:27 51°9.443 2°37.544 18.791278 0.002542 0.019338  
2001-12-04 09:57:32 51°9.438 2°37.515 18.791278 0.002542 0.019338  
2001-12-04 09:57:37 51°9.433 2°37.484 18.833134 0.002542 0.019338  
2001-12-04 09:57:42 51°9.428 2°37.454 18.851441 0.002542 0.019338  
2001-12-04 09:57:46 51°9.424 2°37.43 18.791113 0.002542 0.019338  
2001-12-04 09:57:52 51°9.418 2°37.393 18.825522 0.002542 0.019337  
2001-12-04 09:57:56 51°9.414 2°37.369 18.823917 0.002542 0.019337  
2001-12-04 09:58:01 51°9.409 2°37.339 18.823917 0.002542 0.019337  
2001-12-04 09:58:07 51°9.404 2°37.302 18.808566 0.002542 0.019337  
2001-12-04 09:58:12 51°9.399 2°37.272 18.844283 0.002542 0.019337  
2001-12-04 09:58:17 51°9.395 2°37.241 18.838565 0.002542 0.019336  
2001-12-04 09:58:21 51°9.391 2°37.216 18.825069 0.002542 0.019336  
2001-12-04 09:58:27 51°9.386 2°37.18 18.830336 0.002542 0.019336  
2001-12-04 09:58:31 51°9.382 2°37.155 18.830336 0.002542 0.019336  
2001-12-04 09:58:37 51°9.376 2°37.119 18.833669 0.002542 0.019336  
2001-12-04 09:58:42 51°9.371 2°37.088 18.870976 0.002542 0.019336  
2001-12-04 09:58:47 51°9.366 2°37.058 19.00117 0.002542 0.019335  
2001-12-04 09:58:51 51°9.363 2°37.034 18.835932 0.002542 0.019335  
2001-12-04 09:58:57 51°9.357 2°36.997 18.838482 0.002542 0.019335  
2001-12-04 09:59:02 51°9.352 2°36.967 18.838482 0.002542 0.019335  
2001-12-04 09:59:06 51°9.349 2°36.942 18.837125 0.002542 0.019335  
2001-12-04 09:59:12 51°9.343 2°36.906 18.907072 0.002542 0.019335  
2001-12-04 09:59:16 51°9.339 2°36.881 18.881379 0.002542 0.019335  
2001-12-04 09:59:22 51°9.333 2°36.845 18.860654 0.002542 0.019334  
2001-12-04 09:59:26 51°9.329 2°36.82 18.826057 0.002542 0.019334  
2001-12-04 09:59:31 51°9.324 2°36.789 18.826057 0.002542 0.019334  
2001-12-04 09:59:37 51°9.319 2°36.753 18.896878 0.002542 0.019334  
2001-12-04 09:59:42 51°9.314 2°36.722 18.922524 0.002542 0.019334  
2001-12-04 09:59:47 51°9.309 2°36.691 18.854772 0.002542 0.019334  
2001-12-04 09:59:51 51°9.305 2°36.667 18.875499 0.002542 0.019334  
2001-12-04 09:59:57 51°9.299 2°36.63 18.853127 0.002542 0.019333  
2001-12-04 10:00:01 51°9.295 2°36.605 18.853127 0.002542 0.019333  
2001-12-04 10:00:07 51°9.29 2°36.568 18.862546 0.002542 0.019333  
2001-12-04 10:00:12 51°9.285 2°36.537 18.854114 0.002542 0.019333  
2001-12-04 10:00:16 51°9.282 2°36.513 18.864561 0.002542 0.019333  
2001-12-04 10:00:22 51°9.277 2°36.475 18.906455 0.002542 0.019332  
2001-12-04 10:00:27 51°9.273 2°36.444 18.927167 0.002542 0.019332  
2001-12-04 10:00:32 51°9.269 2°36.413 18.927167 0.002542 0.019332  
2001-12-04 10:00:36 51°9.265 2°36.389 18.889273 0.002542 0.019332  
2001-12-04 10:00:42 51°9.26 2°36.351 18.916853 0.002542 0.019332  
2001-12-04 10:00:46 51°9.257 2°36.327 18.931933 0.002542 0.019331  
2001-12-04 10:00:51 51°9.253 2°36.296 18.942081 0.002542 0.019331  
2001-12-04 10:00:57 51°9.248 2°36.259 18.937685 0.002542 0.019331  
2001-12-04 10:01:02 51°9.243 2°36.228 18.937685 0.002542 0.019331  
2001-12-04 10:01:07 51°9.239 2°36.197 18.942368 0.002542 0.019331  
2001-12-04 10:01:11 51°9.236 2°36.172 18.942902 0.002542 0.019331  
2001-12-04 10:01:17 51°9.231 2°36.136 18.901359 0.002542 0.01933  
2001-12-04 10:01:21 51°9.227 2°36.111 18.953131 0.002542 0.01933  
2001-12-04 10:01:26 51°9.223 2°36.08 18.955718 0.002542 0.01933  
2001-12-04 10:01:31 51°9.219 2°36.049 18.955718 0.002542 0.01933  
2001-12-04 10:01:37 51°9.214 2°36.012 18.908264 0.002542 0.01933  
2001-12-04 10:01:42 51°9.209 2°35.981 18.930988 0.002542 0.01933  
2001-12-04 10:01:47 51°9.205 2°35.95 18.977565 0.002542 0.01933  
2001-12-04 10:01:52 51°9.201 2°35.919 18.959168 0.002542 0.019329  
2001-12-04 10:01:57 51°9.197 2°35.888 19.041465 0.002542 0.019329  
2001-12-04 10:02:02 51°9.192 2°35.856 19.041465 0.002542 0.019329  
2001-12-04 10:02:07 51°9.188 2°35.826 18.947421 0.002542 0.019329  
2001-12-04 10:02:12 51°9.184 2°35.795 18.942368 0.002542 0.019329  
2001-12-04 10:02:17 51°9.179 2°35.763 18.948078 0.002542 0.019329  
2001-12-04 10:02:21 51°9.176 2°35.738 18.964548 0.002542 0.019328  
2001-12-04 10:02:27 51°9.171 2°35.701 18.969229 0.002542 0.019328  
2001-12-04 10:02:32 51°9.166 2°35.67 18.969229 0.002542 0.019328  
2001-12-04 10:02:37 51°9.162 2°35.64 18.954815 0.002542 0.019328  
2001-12-04 10:02:42 51°9.158 2°35.609 18.951118 0.002542 0.019328  
2001-12-04 10:02:47 51°9.154 2°35.578 18.946271 0.002542 0.019328  
2001-12-04 10:02:52 51°9.15 2°35.547 18.997804 0.002542 0.019328  
2001-12-04 10:02:57 51°9.146 2°35.516 18.952309 0.002542 0.019327  
2001-12-04 10:03:01 51°9.142 2°35.491 18.952309 0.002542 0.019327  
2001-12-04 10:03:07 51°9.138 2°35.454 18.95042 0.002542 0.019326  
2001-12-04 10:03:12 51°9.133 2°35.423 18.973952 0.002542 0.019325  
2001-12-04 10:03:17 51°9.129 2°35.392 18.963398 0.002542 0.019324  
2001-12-04 10:03:22 51°9.124 2°35.362 19.009502 0.002542 0.019324  
2001-12-04 10:03:27 51°9.121 2°35.331 18.969763 0.002542 0.019324  
2001-12-04 10:03:31 51°9.117 2°35.306 18.969763 0.002542 0.019324  
2001-12-04 10:03:37 51°9.112 2°35.27 18.96771 0.002542 0.019325  
2001-12-04 10:03:42 51°9.107 2°35.238 18.981794 0.002542 0.019325  
2001-12-04 10:03:47 51°9.103 2°35.208 18.98438 0.002542 0.019325  
2001-12-04 10:03:52 51°9.099 2°35.177 18.983108 0.002542 0.019325  
2001-12-04 10:03:57 51°9.095 2°35.146 18.966026 0.002542 0.019325  
2001-12-04 10:04:02 51°9.09 2°35.115 18.966026 0.002542 0.019325  
2001-12-04 10:04:06 51°9.087 2°35.091 19.054837 0.002542 0.019325  
2001-12-04 10:04:12 51°9.082 2°35.054 19.026285 0.002542 0.019325  
2001-12-04 10:04:17 51°9.078 2°35.023 19.056354 0.002542 0.019325  
2001-12-04 10:04:22 51°9.073 2°34.992 19.04048 0.002542 0.019324  
2001-12-04 10:04:27 51°9.069 2°34.961 19.028049 0.002542 0.019324  
2001-12-04 10:04:32 51°9.065 2°34.93 19.028049 0.002542 0.019324  
2001-12-04 10:04:37 51°9.061 2°34.9 18.986721 0.002542 0.019324  
2001-12-04 10:04:41 51°9.058 2°34.875 19.033834 0.002542 0.019324  
2001-12-04 10:04:47 51°9.052 2°34.838 19.008968 0.002542 0.019324  
2001-12-04 10:04:52 51°9.048 2°34.807 19.042408 0.002542 0.019324  
2001-12-04 10:04:57 51°9.044 2°34.776 19.003469 0.002542 0.019324  
2001-12-04 10:05:02 51°9.039 2°34.746 19.003469 0.002542 0.019324  
2001-12-04 10:05:07 51°9.035 2°34.715 19.082556 0.002542 0.019324  
2001-12-04 10:05:12 51°9.031 2°34.684 19.014221 0.002542 0.019324  
2001-12-04 10:05:17 51°9.027 2°34.653 19.058241 0.002542 0.019324  
2001-12-04 10:05:22 51°9.023 2°34.622 19.05537 0.002542 0.019323  
2001-12-04 10:05:27 51°9.018 2°34.592 19.059061 0.002542 0.019323  
2001-12-04 10:05:31 51°9.015 2°34.567 19.059061 0.002542 0.019323  
2001-12-04 10:05:37 51°9.01 2°34.53 19.195004 0.002542 0.019323  
2001-12-04 10:05:41 51°9.006 2°34.506 19.095428 0.002542 0.019323  
2001-12-04 10:05:47 51°9.001 2°34.469 19.052294 0.002542 0.019323  
2001-12-04 10:05:52 51°8.997 2°34.439 19.102929 0.002542 0.019323  
2001-12-04 10:05:56 51°8.993 2°34.414 19.070994 0.002542 0.019323  
2001-12-04 10:06:02 51°8.989 2°34.377 19.070994 0.002542 0.019323  
2001-12-04 10:06:07 51°8.984 2°34.346 19.084196 0.002542 0.019322  
2001-12-04 10:06:12 51°8.98 2°34.316 19.030593 0.002542 0.019322  
2001-12-04 10:06:17 51°8.976 2°34.285 19.046551 0.002542 0.019322  
2001-12-04 10:06:22 51°8.971 2°34.254 19.081736 0.002542 0.019322  
2001-12-04 10:06:27 51°8.967 2°34.223 19.08805 0.002542 0.019322  
2001-12-04 10:06:31 51°8.963 2°34.199 19.08805 0.002542 0.019322  
2001-12-04 10:06:37 51°8.958 2°34.162 19.055452 0.002542 0.019321  
2001-12-04 10:06:41 51°8.955 2°34.137 19.057625 0.002542 0.019321  
2001-12-04 10:06:47 51°8.95 2°34.101 19.165609 0.002542 0.019321  
2001-12-04 10:06:52 51°8.946 2°34.07 19.12473 0.002542 0.019321  
2001-12-04 10:06:56 51°8.943 2°34.045 19.075381 0.002542 0.019321  
2001-12-04 10:07:02 51°8.937 2°34.008 19.075381 0.002542 0.019321  
2001-12-04 10:07:07 51°8.933 2°33.978 19.097437 0.002542 0.019321  
2001-12-04 10:07:12 51°8.929 2°33.947 19.099445 0.002542 0.01932  
2001-12-04 10:07:17 51°8.924 2°33.917 19.112888 0.002542 0.01932  
2001-12-04 10:07:22 51°8.92 2°33.886 19.097642 0.002542 0.01932  
2001-12-04 10:07:27 51°8.915 2°33.855 19.071773 0.002542 0.01932  
2001-12-04 10:07:32 51°8.911 2°33.824 19.071773 0.002542 0.01932  
2001-12-04 10:07:36 51°8.907 2°33.8 19.067017 0.002542 0.01932  
2001-12-04 10:07:42 51°8.902 2°33.763 19.081408 0.002542 0.01932  
2001-12-04 10:07:47 51°8.898 2°33.733 19.061316 0.002542 0.019319  
2001-12-04 10:07:52 51°8.893 2°33.702 19.061316 0.002542 0.019319  
2001-12-04 10:07:57 51°8.889 2°33.672 19.082105 0.002542 0.019319  
2001-12-04 10:08:02 51°8.884 2°33.641 19.082105 0.002542 0.019319  
2001-12-04 10:08:07 51°8.88 2°33.611 19.100224 0.002542 0.019319  
2001-12-04 10:08:12 51°8.875 2°33.58 19.127967 0.002542 0.019319  
2001-12-04 10:08:17 51°8.871 2°33.55 19.156927 0.002542 0.019318  
2001-12-04 10:08:22 51°8.866 2°33.521 19.098011 0.002542 0.019318  
2001-12-04 10:08:27 51°8.862 2°33.494 19.047454 0.002542 0.019318  
2001-12-04 10:08:32 51°8.858 2°33.47 19.047454 0.002542 0.019318  
2001-12-04 10:08:37 51°8.855 2°33.447 19.088952 0.002542 0.019318  
2001-12-04 10:08:41 51°8.852 2°33.43 19.144763 0.002542 0.019317  
2001-12-04 10:08:47 51°8.848 2°33.407 19.182846 0.002542 0.019317  
2001-12-04 10:08:52 51°8.845 2°33.389 19.13317 0.002542 0.019317  
2001-12-04 10:08:57 51°8.842 2°33.371 19.163029 0.002542 0.019316  
2001-12-04 10:09:02 51°8.839 2°33.356 19.163029 0.002542 0.019316  
2001-12-04 10:09:07 51°8.836 2°33.342 19.139479 0.002542 0.019316  
2001-12-04 10:09:12 51°8.833 2°33.329 19.141977 0.002542 0.019315  
2001-12-04 10:09:17 51°8.831 2°33.317 19.157009 0.002542 0.019315  
2001-12-04 10:09:22 51°8.829 2°33.307 19.153815 0.002542 0.019314  
2001-12-04 10:09:27 51°8.827 2°33.299 19.162906 0.002542 0.019314  
2001-12-04 10:09:32 51°8.826 2°33.292 19.162906 0.002542 0.019314  
2001-12-04 10:09:37 51°8.825 2°33.287 19.175149 0.002542 0.019313  
2001-12-04 10:09:42 51°8.824 2°33.284 19.187759 0.002542 0.019312  
2001-12-04 10:09:47 51°8.823 2°33.282 19.130302 0.002542 0.019312  
2001-12-04 10:09:52 51°8.822 2°33.282 19.1765 0.002542 0.019312  
2001-12-04 10:09:57 51°8.82 2°33.282 19.179448 0.002542 0.019311  
2001-12-04 10:10:02 51°8.82 2°33.282 19.179448 0.002542 0.019311  
2001-12-04 10:10:08 51°8.818 2°33.283 19.231178 0.002542 0.019311  
2001-12-04 10:10:12 51°8.818 2°33.284 19.234287 0.002542 0.019311  
2001-12-04 10:10:18 51°8.816 2°33.284 19.204213 0.002542 0.01931  
2001-12-04 10:10:23 51°8.815 2°33.285 19.241405 0.002542 0.01931  
2001-12-04 10:10:28 51°8.814 2°33.286 19.241159 0.002542 0.019309  
2001-12-04 10:10:33 51°8.812 2°33.287 19.241159 0.002542 0.019309  
2001-12-04 10:10:38 51°8.811 2°33.289 19.201102 0.002542 0.019309  
2001-12-04 10:10:42 51°8.81 2°33.29 19.241855 0.002542 0.019309  
2001-12-04 10:10:47 51°8.808 2°33.292 19.246722 0.002542 0.019308  
2001-12-04 10:10:52 51°8.807 2°33.294 19.225369 0.002542 0.019308  
2001-12-04 10:10:57 51°8.805 2°33.295 19.204131 0.002542 0.019308  
2001-12-04 10:11:02 51°8.804 2°33.296 19.204131 0.002542 0.019308  
2001-12-04 10:11:08 51°8.803 2°33.295 19.273508 0.002542 0.019307  
2001-12-04 10:11:12 51°8.803 2°33.293 19.247049 0.002542 0.019307  
2001-12-04 10:11:17 51°8.804 2°33.29 19.24799 0.002542 0.019307  
2001-12-04 10:11:22 51°8.804 2°33.287 19.244677 0.002542 0.019307  
2001-12-04 10:11:28 51°8.804 2°33.283 19.2439 0.002542 0.019307  
2001-12-04 10:11:33 51°8.804 2°33.281 19.2439 0.002542 0.019307  
2001-12-04 10:11:37 51°8.804 2°33.279 19.244432 0.002542 0.019307  
2001-12-04 10:11:41 51°8.805 2°33.277 19.246681 0.002542 0.019306  
2001-12-04 10:11:47 51°8.805 2°33.274 19.25298 0.002542 0.019306  
2001-12-04 10:11:52 51°8.805 2°33.272 19.287734 0.002542 0.019306  
2001-12-04 10:11:57 51°8.805 2°33.269 19.287693 0.002542 0.019306  
2001-12-04 10:12:02 51°8.805 2°33.267 19.287693 0.002542 0.019306  
2001-12-04 10:12:07 51°8.805 2°33.265 19.255393 0.002542 0.019306  
2001-12-04 10:12:11 51°8.805 2°33.264 19.299302 0.002542 0.019306  
2001-12-04 10:12:17 51°8.805 2°33.262 19.268397 0.002542 0.019306  
2001-12-04 10:12:21 51°8.805 2°33.261 19.304288 0.002542 0.019305  
2001-12-04 10:12:27 51°8.805 2°33.259 19.270564 0.002542 0.019305  
2001-12-04 10:12:32 51°8.805 2°33.258 19.270564 0.002542 0.019305  
2001-12-04 10:12:37 51°8.805 2°33.257 19.310663 0.002542 0.019305  
2001-12-04 10:12:42 51°8.805 2°33.256 19.281643 0.002542 0.019305  
2001-12-04 10:12:47 51°8.805 2°33.255 19.282011 0.002542 0.019305  
2001-12-04 10:12:52 51°8.805 2°33.255 19.322267 0.002542 0.019305  
2001-12-04 10:12:57 51°8.805 2°33.254 19.323656 0.002542 0.019305  
2001-12-04 10:13:01 51°8.805 2°33.253 19.323656 0.002542 0.019305  
2001-12-04 10:13:07 51°8.805 2°33.253 19.335749 0.002542 0.019305  
2001-12-04 10:13:12 51°8.805 2°33.252 19.372013 0.002542 0.019305  
2001-12-04 10:13:17 51°8.805 2°33.252 19.367931 0.002542 0.019305  
2001-12-04 10:13:21 51°8.804 2°33.251 19.334278 0.002542 0.019305  
2001-12-04 10:13:27 51°8.804 2°33.251 19.28986 0.002542 0.019305  
2001-12-04 10:13:32 51°8.804 2°33.251 19.28986 0.002542 0.019305  
2001-12-04 10:13:37 51°8.804 2°33.251 19.338118 0.002542 0.019305  
2001-12-04 10:13:41 51°8.804 2°33.251 19.312461 0.002542 0.019305  
2001-12-04 10:13:47 51°8.803 2°33.251 19.32002 0.002542 0.019305  
2001-12-04 10:13:52 51°8.803 2°33.251 19.34641 0.002542 0.019305  
2001-12-04 10:13:57 51°8.802 2°33.251 19.357028 0.002542 0.019305  
2001-12-04 10:14:02 51°8.802 2°33.251 19.357028 0.002542 0.019305  
2001-12-04 10:14:07 51°8.801 2°33.25 19.344122 0.002542 0.019305  
2001-12-04 10:14:12 51°8.8 2°33.25 19.324187 0.002542 0.019305  
2001-12-04 10:14:17 51°8.8 2°33.25 19.361275 0.002542 0.019305  
2001-12-04 10:14:22 51°8.799 2°33.251 19.329335 0.002542 0.019305  
2001-12-04 10:14:27 51°8.799 2°33.251 19.325168 0.002542 0.019305  
2001-12-04 10:14:32 51°8.798 2°33.25 19.325168 0.002542 0.019305  
2001-12-04 10:14:37 51°8.798 2°33.251 19.343346 0.002542 0.019304  
2001-12-04 10:14:41 51°8.797 2°33.251 19.338608 0.002542 0.019304  
2001-12-04 10:14:47 51°8.796 2°33.251 19.328927 0.002542 0.019304  
2001-12-04 10:14:52 51°8.796 2°33.25 19.345021 0.002542 0.019304  
2001-12-04 10:14:57 51°8.795 2°33.251 19.377239 0.002542 0.019304  
2001-12-04 10:15:02 51°8.794 2°33.25 19.377239 0.002542 0.019304  
2001-12-04 10:15:07 51°8.794 2°33.251 19.351596 0.002542 0.019304  
2001-12-04 10:15:12 51°8.793 2°33.25 19.35078 0.002542 0.019304  
2001-12-04 10:15:16 51°8.793 2°33.25 19.346246 0.002542 0.019304  
2001-12-04 10:15:22 51°8.792 2°33.25 19.366624 0.002542 0.019304  
2001-12-04 10:15:27 51°8.791 2°33.251 19.399689 0.002542 0.019304  
2001-12-04 10:15:32 51°8.791 2°33.25 19.399689 0.002542 0.019304  
2001-12-04 10:15:37 51°8.79 2°33.25 19.36201 0.002542 0.019304  
2001-12-04 10:15:41 51°8.79 2°33.251 19.398506 0.002542 0.019304  
2001-12-04 10:15:47 51°8.789 2°33.251 19.372218 0.002542 0.019304  
2001-12-04 10:15:52 51°8.789 2°33.251 19.409402 0.002542 0.019304  
2001-12-04 10:15:57 51°8.788 2°33.251 19.412095 0.002542 0.019304  
2001-12-04 10:16:02 51°8.787 2°33.251 19.412095 0.002542 0.019304  
2001-12-04 10:16:07 51°8.787 2°33.251 19.385077 0.002542 0.019304  
2001-12-04 10:16:12 51°8.786 2°33.251 19.380179 0.002542 0.019304  
2001-12-04 10:16:16 51°8.786 2°33.251 19.382832 0.002542 0.019304  
2001-12-04 10:16:22 51°8.785 2°33.251 19.386098 0.002542 0.019304  
2001-12-04 10:16:27 51°8.785 2°33.251 19.383893 0.002542 0.019304  
2001-12-04 10:16:32 51°8.784 2°33.251 19.383893 0.002542 0.019304  
2001-12-04 10:16:37 51°8.784 2°33.251 19.397118 0.002542 0.019304  
2001-12-04 10:16:42 51°8.783 2°33.251 19.449218 0.002542 0.019304  
2001-12-04 10:16:47 51°8.782 2°33.251 19.388955 0.002542 0.019304  
2001-12-04 10:16:52 51°8.782 2°33.251 19.428374 0.002542 0.019304  
2001-12-04 10:16:57 51°8.781 2°33.251 19.434045 0.002542 0.019304  
2001-12-04 10:17:01 51°8.781 2°33.251 19.434045 0.002542 0.019304  
2001-12-04 10:17:07 51°8.78 2°33.251 19.472623 0.002542 0.019304  
2001-12-04 10:17:12 51°8.78 2°33.25 19.438491 0.002542 0.019304  
2001-12-04 10:17:17 51°8.779 2°33.25 19.400465 0.002542 0.019304  
2001-12-04 10:17:21 51°8.779 2°33.25 19.453337 0.002542 0.019304  
2001-12-04 10:17:27 51°8.778 2°33.25 19.414829 0.002542 0.019304  
2001-12-04 10:17:32 51°8.778 2°33.25 19.414829 0.002542 0.019304  
2001-12-04 10:17:36 51°8.777 2°33.249 19.423397 0.002542 0.019304  
2001-12-04 10:17:42 51°8.777 2°33.249 19.393976 0.002542 0.019304  
2001-12-04 10:17:47 51°8.776 2°33.249 19.485139 0.002542 0.019304  
2001-12-04 10:17:52 51°8.776 2°33.249 19.45876 0.002542 0.019304  
2001-12-04 10:17:57 51°8.775 2°33.249 19.456191 0.002542 0.019304  
2001-12-04 10:18:02 51°8.775 2°33.249 19.456191 0.002542 0.019304  
2001-12-04 10:18:07 51°8.775 2°33.249 19.468424 0.002542 0.019304  
2001-12-04 10:18:12 51°8.774 2°33.249 19.567064 0.002542 0.019304  
2001-12-04 10:18:16 51°8.774 2°33.248 19.497692 0.002542 0.019304  
2001-12-04 10:18:22 51°8.774 2°33.248 19.496184 0.002542 0.019304  
2001-12-04 10:18:27 51°8.773 2°33.248 19.440694 0.002542 0.019304  
2001-12-04 10:18:32 51°8.773 2°33.248 19.440694 0.002542 0.019304  
2001-12-04 10:18:37 51°8.772 2°33.247 19.465651 0.002542 0.019304  
2001-12-04 10:18:42 51°8.772 2°33.247 19.439021 0.002542 0.019304  
2001-12-04 10:18:46 51°8.771 2°33.247 19.48306 0.002542 0.019304  
2001-12-04 10:18:52 51°8.771 2°33.247 19.450156 0.002542 0.019304  
2001-12-04 10:18:57 51°8.77 2°33.247 19.479391 0.002542 0.019304  
2001-12-04 10:19:02 51°8.77 2°33.246 19.479391 0.002542 0.019304  
2001-12-04 10:19:07 51°8.769 2°33.246 19.490111 0.002542 0.019303  
2001-12-04 10:19:12 51°8.769 2°33.246 19.494717 0.002542 0.019303  
2001-12-04 10:19:17 51°8.768 2°33.246 19.48844 0.002542 0.019303  
2001-12-04 10:19:21 51°8.768 2°33.245 19.5188 0.002542 0.019303  
2001-12-04 10:19:27 51°8.767 2°33.245 19.49382 0.002542 0.019303  
2001-12-04 10:19:32 51°8.766 2°33.245 19.49382 0.002542 0.019303  
2001-12-04 10:19:37 51°8.766 2°33.244 19.494635 0.002542 0.019303  
2001-12-04 10:19:42 51°8.766 2°33.244 19.466589 0.002542 0.019303  
2001-12-04 10:19:45 51°8.765 2°33.244 19.467935 0.002542 0.019303  
2001-12-04 10:19:52 51°8.765 2°33.244 19.506413 0.002542 0.019303  
2001-12-04 10:19:57 51°8.764 2°33.243 19.481348 0.002542 0.019303  
2001-12-04 10:20:01 51°8.764 2°33.243 19.481348 0.002542 0.019303  
2001-12-04 10:20:07 51°8.763 2°33.243 19.476863 0.002542 0.019303  
2001-12-04 10:20:12 51°8.763 2°33.243 19.490723 0.002542 0.019303  
2001-12-04 10:20:17 51°8.763 2°33.243 19.490641 0.002542 0.019303  
2001-12-04 10:20:21 51°8.762 2°33.243 19.498956 0.002542 0.019303  
2001-12-04 10:20:27 51°8.762 2°33.243 19.494432 0.002542 0.019303  
2001-12-04 10:20:31 51°8.762 2°33.243 19.494432 0.002542 0.019303  
2001-12-04 10:20:37 51°8.761 2°33.242 19.529229 0.002542 0.019303  
2001-12-04 10:20:42 51°8.76 2°33.242 19.492516 0.002444 0.018833  
2001-12-04 10:20:46 51°8.76 2°33.243 19.568733 0.002542 0.019303  
2001-12-04 10:20:52 51°8.76 2°33.243 19.533792 0.002542 0.019303  
2001-12-04 10:20:57 51°8.759 2°33.243 19.571583 0.002542 0.019303  
2001-12-04 10:21:02 51°8.758 2°33.243 19.571583 0.002542 0.019303  
2001-12-04 10:21:07 51°8.758 2°33.243 19.510773 0.002542 0.019303  
2001-12-04 10:21:12 51°8.757 2°33.242 19.541897 0.002542 0.019303  
2001-12-04 10:21:17 51°8.757 2°33.243 19.577974 0.002542 0.019303  
2001-12-04 10:21:22 51°8.756 2°33.242 19.550898 0.002444 0.018833  
2001-12-04 10:21:27 51°8.756 2°33.243 19.577445 0.002542 0.019303  
2001-12-04 10:21:32 51°8.755 2°33.242 19.577445 0.002542 0.019303  
2001-12-04 10:21:37 51°8.754 2°33.242 19.548536 0.002542 0.019303  
2001-12-04 10:21:41 51°8.754 2°33.242 19.540594 0.002542 0.019303  
2001-12-04 10:21:47 51°8.753 2°33.242 19.563969 0.002444 0.018833  
2001-12-04 10:21:52 51°8.752 2°33.243 19.514277 0.002542 0.019302  
2001-12-04 10:21:56 51°8.752 2°33.243 19.53257 0.002444 0.018833  
2001-12-04 10:22:01 51°8.752 2°33.243 19.53257 0.002444 0.018833  
2001-12-04 10:22:07 51°8.751 2°33.243 19.526541 0.002542 0.019302  
2001-12-04 10:22:12 51°8.75 2°33.243 19.5287 0.002542 0.019302  
2001-12-04 10:22:17 51°8.75 2°33.243 19.573618 0.002542 0.019302  
2001-12-04 10:22:22 51°8.749 2°33.243 20.135777 0.002542 0.019302  
2001-12-04 10:22:27 51°8.748 2°33.243 19.54483 0.002542 0.019302  
2001-12-04 10:22:32 51°8.748 2°33.243 19.54483 0.002542 0.019302  
2001-12-04 10:22:37 51°8.747 2°33.243 19.539372 0.002542 0.019302  
2001-12-04 10:22:42 51°8.747 2°33.244 19.545441 0.002542 0.019302  
2001-12-04 10:22:47 51°8.746 2°33.243 19.578666 0.002444 0.018832  
2001-12-04 10:22:52 51°8.746 2°33.245 19.582208 0.002542 0.019302  
2001-12-04 10:22:57 51°8.745 2°33.245 19.548862 0.002542 0.019302  
2001-12-04 10:23:02 51°8.744 2°33.245 19.548862 0.002542 0.019302  
2001-12-04 10:23:07 51°8.744 2°33.245 19.558513 0.002444 0.018832  
2001-12-04 10:23:12 51°8.743 2°33.246 19.555744 0.002444 0.018832  
2001-12-04 10:23:17 51°8.742 2°33.246 19.625465 0.002542 0.019302  
2001-12-04 10:23:22 51°8.741 2°33.246 19.565191 0.002542 0.019302  
2001-12-04 10:23:27 51°8.74 2°33.247 19.628556 0.002444 0.018832  
2001-12-04 10:23:32 51°8.74 2°33.247 19.628556 0.002444 0.018832  
2001-12-04 10:23:37 51°8.739 2°33.248 19.562015 0.002542 0.019302  
2001-12-04 10:23:42 51°8.738 2°33.248 19.571013 0.002542 0.019302  
2001-12-04 10:23:47 51°8.738 2°33.248 19.564051 0.002542 0.019302  
2001-12-04 10:23:52 51°8.737 2°33.248 19.601947 0.002444 0.018832  
2001-12-04 10:23:57 51°8.736 2°33.249 19.605895 0.002542 0.019302  
2001-12-04 10:24:01 51°8.736 2°33.249 19.605895 0.002542 0.019302  
2001-12-04 10:24:07 51°8.735 2°33.249 19.579073 0.002542 0.019302  
2001-12-04 10:24:12 51°8.734 2°33.25 19.577893 0.002542 0.019302  
2001-12-04 10:24:17 51°8.733 2°33.25 19.584365 0.002444 0.018832  
2001-12-04 10:24:21 51°8.733 2°33.25 19.585301 0.002542 0.019301  
2001-12-04 10:24:27 51°8.732 2°33.25 19.639295 0.002444 0.018831  
2001-12-04 10:24:32 51°8.731 2°33.251 19.639295 0.002444 0.018831  
2001-12-04 10:24:37 51°8.731 2°33.251 19.712021 0.002542 0.019301  
2001-12-04 10:24:42 51°8.73 2°33.251 19.59104 0.002542 0.019301  
2001-12-04 10:24:47 51°8.73 2°33.251 19.593767 0.002542 0.019301  
2001-12-04 10:24:52 51°8.73 2°33.251 19.620135 0.002444 0.018831  
2001-12-04 10:24:57 51°8.731 2°33.252 19.593401 0.002444 0.018831  
2001-12-04 10:25:02 51°8.732 2°33.251 19.593401 0.002444 0.018831  
2001-12-04 10:25:07 51°8.733 2°33.25 19.600279 0.002444 0.018831  
2001-12-04 10:25:11 51°8.735 2°33.25 19.600197 0.002444 0.018831  
2001-12-04 10:25:17 51°8.738 2°33.249 19.636285 0.002444 0.018831  
2001-12-04 10:25:21 51°8.74 2°33.247 19.642793 0.002542 0.019301  
2001-12-04 10:25:27 51°8.744 2°33.244 19.638319 0.002444 0.018831  
2001-12-04 10:25:32 51°8.748 2°33.24 19.638319 0.002444 0.018831  
2001-12-04 10:25:36 51°8.751 2°33.237 19.616881 0.002444 0.018831  
2001-12-04 10:25:42 51°8.755 2°33.233 19.608295 0.002444 0.018831  
2001-12-04 10:25:47 51°8.759 2°33.228 19.646738 0.002542 0.019301  
2001-12-04 10:25:52 51°8.763 2°33.222 19.617043 0.002444 0.018831  
2001-12-04 10:25:57 51°8.767 2°33.217 19.65174 0.002444 0.018831  
2001-12-04 10:26:02 51°8.771 2°33.21 19.65174 0.002444 0.018831  
2001-12-04 10:26:06 51°8.774 2°33.206 19.634739 0.002542 0.019301  
2001-12-04 10:26:12 51°8.779 2°33.197 19.623227 0.002444 0.018831  
2001-12-04 10:26:17 51°8.783 2°33.19 19.675688 0.002542 0.019301  
2001-12-04 10:26:22 51°8.788 2°33.183 19.630875 0.002444 0.018831  
2001-12-04 10:26:27 51°8.792 2°33.176 19.649584 0.002444 0.01883  
2001-12-04 10:26:32 51°8.796 2°33.17 19.649584 0.002444 0.01883  
2001-12-04 10:26:37 51°8.799 2°33.164 19.660482 0.002542 0.019301  
2001-12-04 10:26:41 51°8.802 2°33.158 19.626807 0.002542 0.019301  
2001-12-04 10:26:47 51°8.806 2°33.151 19.654749 0.002542 0.0193  
2001-12-04 10:26:52 51°8.81 2°33.144 19.697433 0.002444 0.01883  
2001-12-04 10:26:57 51°8.813 2°33.138 19.631363 0.002444 0.01883  
2001-12-04 10:27:02 51°8.817 2°33.132 19.631363 0.002444 0.01883  
2001-12-04 10:27:07 51°8.82 2°33.125 19.634739 0.002444 0.01883  
2001-12-04 10:27:12 51°8.823 2°33.119 19.661865 0.002444 0.01883  
2001-12-04 10:27:17 51°8.826 2°33.113 19.707836 0.002444 0.01883  
2001-12-04 10:27:22 51°8.83 2°33.106 19.632706 0.002444 0.01883  
2001-12-04 10:27:27 51°8.833 2°33.1 19.677598 0.002444 0.01883  
2001-12-04 10:27:32 51°8.836 2°33.093 19.677598 0.002444 0.01883  
2001-12-04 10:27:37 51°8.839 2°33.087 19.671704 0.002444 0.01883  
2001-12-04 10:27:42 51°8.843 2°33.08 19.67211 0.002542 0.0193  
2001-12-04 10:27:47 51°8.846 2°33.074 19.679956 0.002542 0.0193  
2001-12-04 10:27:51 51°8.848 2°33.069 19.648934 0.002444 0.01883  
2001-12-04 10:27:57 51°8.852 2°33.061 19.650804 0.002444 0.01883  
2001-12-04 10:28:02 51°8.855 2°33.054 19.650804 0.002444 0.01883  
2001-12-04 10:28:07 51°8.858 2°33.048 19.680444 0.002542 0.0193  
2001-12-04 10:28:12 51°8.861 2°33.041 19.649828 0.002444 0.01883  
2001-12-04 10:28:17 51°8.865 2°33.034 19.693409 0.002444 0.01883  
2001-12-04 10:28:22 51°8.867 2°33.028 19.691743 0.002444 0.01883  
2001-12-04 10:28:27 51°8.87 2°33.022 19.781789 0.002444 0.01883  
2001-12-04 10:28:32 51°8.873 2°33.015 19.781789 0.002444 0.01883  
2001-12-04 10:28:37 51°8.875 2°33.01 19.653244 0.002444 0.01883  
2001-12-04 10:28:42 51°8.878 2°33.005 19.668167 0.002444 0.01883  
2001-12-04 10:28:47 51°8.88 2°33 19.702959 0.002542 0.0193  
2001-12-04 10:28:51 51°8.882 2°32.996 19.734202 0.002542 0.0193  
2001-12-04 10:28:57 51°8.884 2°32.991 19.663532 0.002444 0.01883  
2001-12-04 10:29:01 51°8.886 2°32.987 19.663532 0.002444 0.01883  
2001-12-04 10:29:07 51°8.888 2°32.983 19.723599 0.002444 0.01883  
2001-12-04 10:29:11 51°8.889 2°32.981 19.663166 0.002542 0.0193  
2001-12-04 10:29:17 51°8.889 2°32.979 19.666703 0.002444 0.01883  
2001-12-04 10:29:22 51°8.889 2°32.979 19.689345 0.002444 0.018829  
2001-12-04 10:29:27 51°8.889 2°32.979 19.657839 0.002444 0.01883  
2001-12-04 10:29:32 51°8.888 2°32.979 19.657839 0.002444 0.01883  
2001-12-04 10:29:36 51°8.888 2°32.979 19.712305 0.002444 0.01883  
2001-12-04 10:29:42 51°8.887 2°32.98 19.677842 0.002444 0.01883  
2001-12-04 10:29:47 51°8.886 2°32.981 19.71263 0.002444 0.01883  
2001-12-04 10:29:52 51°8.885 2°32.981 19.727256 0.002542 0.0193  
2001-12-04 10:29:57 51°8.884 2°32.982 19.695848 0.002542 0.0193  
2001-12-04 10:30:03 51°8.884 2°32.982 19.695848 0.002542 0.0193  
2001-12-04 10:30:08 51°8.883 2°32.983 19.754914 0.002444 0.01883  
2001-12-04 10:30:13 51°8.882 2°32.984 19.700196 0.002444 0.018829  
2001-12-04 10:30:18 51°8.881 2°32.984 19.737004 0.002542 0.0193  
2001-12-04 10:30:22 51°8.881 2°32.985 19.761491 0.002444 0.018829  
2001-12-04 10:30:28 51°8.88 2°32.985 19.698042 0.002444 0.018829  
2001-12-04 10:30:32 51°8.879 2°32.985 19.698042 0.002444 0.018829  
2001-12-04 10:30:37 51°8.879 2°32.985 19.705763 0.002444 0.018829  
2001-12-04 10:30:42 51°8.878 2°32.986 19.709908 0.002444 0.018829  
2001-12-04 10:30:47 51°8.878 2°32.986 19.730586 0.002444 0.018829  
2001-12-04 10:30:52 51°8.877 2°32.986 19.715881 0.002444 0.018829  
2001-12-04 10:30:56 51°8.876 2°32.987 19.712224 0.002444 0.018829  
2001-12-04 10:31:02 51°8.876 2°32.987 19.712224 0.002444 0.018829  
2001-12-04 10:31:07 51°8.875 2°32.988 19.714174 0.002444 0.018829  
2001-12-04 10:31:12 51°8.875 2°32.988 19.714215 0.002444 0.018829  
2001-12-04 10:31:17 51°8.874 2°32.988 19.791571 0.002444 0.018829  
2001-12-04 10:31:21 51°8.874 2°32.988 19.727459 0.002444 0.018829  
2001-12-04 10:31:26 51°8.873 2°32.989 19.724656 0.002444 0.018829  
2001-12-04 10:31:32 51°8.872 2°32.99 19.724656 0.002444 0.018829  
2001-12-04 10:31:37 51°8.872 2°32.989 19.741431 0.002444 0.018829  
2001-12-04 10:31:41 51°8.871 2°32.99 19.758527 0.002444 0.018829  
2001-12-04 10:31:47 51°8.871 2°32.991 19.79636 0.002444 0.018829  
2001-12-04 10:31:52 51°8.871 2°32.991 19.76413 0.002444 0.018829  
2001-12-04 10:31:57 51°8.87 2°32.991 19.763603 0.002444 0.018829  
2001-12-04 10:32:02 51°8.869 2°32.991 19.763603 0.002444 0.018829  
2001-12-04 10:32:07 51°8.869 2°32.992 19.727702 0.002444 0.018829  
2001-12-04 10:32:12 51°8.868 2°32.992 19.796887 0.002444 0.018829  
2001-12-04 10:32:17 51°8.868 2°32.993 19.74468 0.002444 0.018828  
2001-12-04 10:32:21 51°8.868 2°32.993 19.727459 0.002444 0.018828  
2001-12-04 10:32:27 51°8.867 2°32.993 19.789298 0.002444 0.018828  
2001-12-04 10:32:32 51°8.867 2°32.994 19.789298 0.002444 0.018828  
2001-12-04 10:32:37 51°8.867 2°32.994 19.778542 0.002444 0.018828  
2001-12-04 10:32:42 51°8.866 2°32.995 19.745492 0.002444 0.018828  
2001-12-04 10:32:47 51°8.866 2°32.995 19.786944 0.002444 0.018828  
2001-12-04 10:32:52 51°8.866 2°32.996 19.752315 0.002444 0.018828  
2001-12-04 10:32:57 51°8.865 2°32.996 19.75333 0.002444 0.018828  
2001-12-04 10:33:02 51°8.865 2°32.996 19.75333 0.002444 0.018828  
2001-12-04 10:33:07 51°8.865 2°32.996 19.756944 0.002444 0.018828  
2001-12-04 10:33:12 51°8.865 2°32.996 19.757472 0.002444 0.018828  
2001-12-04 10:33:17 51°8.864 2°32.996 19.75666 0.002444 0.018828  
2001-12-04 10:33:21 51°8.864 2°32.997 19.790759 0.002444 0.018828  
2001-12-04 10:33:27 51°8.864 2°32.996 19.805693 0.002444 0.018828  
2001-12-04 10:33:32 51°8.863 2°32.997 19.805693 0.002444 0.018828  
2001-12-04 10:33:37 51°8.863 2°32.997 19.766282 0.002444 0.018828  
2001-12-04 10:33:42 51°8.863 2°32.997 19.76141 0.002444 0.018828  
2001-12-04 10:33:47 51°8.863 2°32.997 19.810805 0.002444 0.018827  
2001-12-04 10:33:52 51°8.862 2°32.997 19.809791 0.002444 0.018827  
2001-12-04 10:33:56 51°8.862 2°32.998 19.836322 0.002444 0.018827  
2001-12-04 10:34:02 51°8.862 2°32.998 19.836322 0.002444 0.018827  
2001-12-04 10:34:07 51°8.862 2°32.998 19.800377 0.002542 0.019298  
2001-12-04 10:34:12 51°8.862 2°32.999 19.875247 0.002444 0.018827  
2001-12-04 10:34:17 51°8.861 2°32.998 19.779516 0.002444 0.018827  
2001-12-04 10:34:22 51°8.861 2°32.999 19.817703 0.002444 0.018827  
2001-12-04 10:34:26 51°8.861 2°32.999 19.774889 0.002444 0.018827  
2001-12-04 10:34:32 51°8.86 2°33 19.774889 0.002444 0.018827  
2001-12-04 10:34:37 51°8.86 2°33 19.819488 0.002444 0.018827  
2001-12-04 10:34:42 51°8.86 2°33 19.782439 0.002444 0.018827  
2001-12-04 10:34:47 51°8.86 2°33.001 19.819123 0.002444 0.018827  
2001-12-04 10:34:52 51°8.859 2°33.001 19.787025 0.002444 0.018827  
2001-12-04 10:34:57 51°8.859 2°33.001 19.786498 0.002444 0.018826  
2001-12-04 10:35:02 51°8.859 2°33.002 19.786498 0.002444 0.018826  
2001-12-04 10:35:07 51°8.859 2°33.002 19.782398 0.002444 0.018826  
2001-12-04 10:35:12 51°8.859 2°33.003 19.821557 0.002444 0.018826  
2001-12-04 10:35:17 51°8.859 2°33.002 19.903212 0.002444 0.018826  
2001-12-04 10:35:22 51°8.858 2°33.003 19.785037 0.002444 0.018826  
2001-12-04 10:35:26 51°8.858 2°33.003 19.804638 0.002444 0.018826  
2001-12-04 10:35:31 51°8.858 2°33.004 19.804638 0.002444 0.018826  
2001-12-04 10:35:36 51°8.858 2°33.004 19.832833 0.002444 0.018826  
2001-12-04 10:35:42 51°8.858 2°33.004 19.857977 0.002444 0.018826  
2001-12-04 10:35:47 51°8.858 2°33.004 19.833523 0.002444 0.018826  
2001-12-04 10:35:52 51°8.857 2°33.005 19.827479 0.002444 0.018825  
2001-12-04 10:35:57 51°8.857 2°33.005 19.794899 0.002444 0.018825  
2001-12-04 10:36:02 51°8.857 2°33.005 19.794899 0.002444 0.018825  
2001-12-04 10:36:07 51°8.857 2°33.006 19.917919 0.002444 0.018825  
2001-12-04 10:36:12 51°8.857 2°33.006 19.845812 0.002444 0.018825  
2001-12-04 10:36:17 51°8.857 2°33.006 19.81892 0.002444 0.018825  
2001-12-04 10:36:22 51°8.857 2°33.007 19.812104 0.002444 0.018825  
2001-12-04 10:36:27 51°8.856 2°33.007 19.860774 0.002444 0.018825  
2001-12-04 10:36:32 51°8.856 2°33.007 19.860774 0.002444 0.018825  
2001-12-04 10:36:37 51°8.856 2°33.008 19.85826 0.002444 0.018825  
2001-12-04 10:36:41 51°8.856 2°33.008 19.828615 0.002444 0.018825  
2001-12-04 10:36:47 51°8.855 2°33.008 19.81896 0.002444 0.018825  
2001-12-04 10:36:52 51°8.855 2°33.008 19.814944 0.002444 0.018825  
2001-12-04 10:36:57 51°8.855 2°33.009 19.840905 0.002444 0.018825  
2001-12-04 10:37:01 51°8.855 2°33.009 19.840905 0.002444 0.018825  
2001-12-04 10:37:07 51°8.854 2°33.009 19.81892 0.002444 0.018825  
2001-12-04 10:37:12 51°8.854 2°33.009 19.862599 0.002444 0.018824  
2001-12-04 10:37:16 51°8.854 2°33.009 19.836808 0.002444 0.018824  
2001-12-04 10:37:22 51°8.854 2°33.009 19.869572 0.002444 0.018824  
2001-12-04 10:37:27 51°8.853 2°33.01 19.880395 0.002444 0.018824  
2001-12-04 10:37:32 51°8.853 2°33.01 19.880395 0.002444 0.018824  
2001-12-04 10:37:37 51°8.853 2°33.01 19.899727 0.002444 0.018824  
2001-12-04 10:37:42 51°8.853 2°33.011 19.875936 0.002444 0.018824  
2001-12-04 10:37:47 51°8.853 2°33.012 19.88153 0.002444 0.018824  
2001-12-04 10:37:52 51°8.853 2°33.012 19.847272 0.002444 0.018824  
2001-12-04 10:37:57 51°8.852 2°33.013 19.84569 0.002444 0.018824  
2001-12-04 10:38:02 51°8.852 2°33.013 19.84569 0.002444 0.018824  
2001-12-04 10:38:07 51°8.852 2°33.014 19.837538 0.002444 0.018824  
2001-12-04 10:38:12 51°8.851 2°33.014 19.848407 0.002444 0.018823  
2001-12-04 10:38:17 51°8.851 2°33.015 19.904184 0.002444 0.018823